CW8847 Weather Reports


Display with metric or nautical units.
time (UTC)temp
F
wind
direction
speed
MPH
gust
MPH
rain 1hr
in
rain 24hr
in
rain mn
in
humidity
%
barometer
mb
20260502105620 46 26 3.0 4.0 0.00 0.00 0.00 54 1018.8
20260502104631 46 26 1.0 3.0 0.00 0.00 0.00 54 1018.7
20260502103619 47 26 2.0 4.0 0.00 0.00 0.00 54 1018.8
20260502102626 47 26 2.0 2.0 0.00 0.00 0.00 53 1018.6
20260502101614 48 26 1.0 4.0 0.00 0.00 0.00 51 1018.7
20260502100646 48 26 3.0 4.0 0.00 0.00 0.00 52 1018.6
20260502090628 50 34 6.0 8.0 0.00 0.00 0.00 47 1018.7
20260502070623 47 73 4.0 5.0 0.00 0.00 0.00 52 1018.9
20260502065624 48 74 4.0 8.0 0.00 0.00 0.00 49 1018.8
20260502064618 48 28 4.0 6.0 0.00 0.00 0.00 48 1018.6
20260502063647 48 24 2.0 5.0 0.00 0.00 0.00 48 1018.5
20260502062634 50 24 1.0 3.0 0.00 0.00 0.00 45 1018.5
20260502061620 55 23 4.0 10.0 0.00 0.00 0.00 37 1018.3
20260502060619 55 15 9.0 10.0 0.00 0.00 0.00 35 1018.2
20260502055619 54 15 0.0 2.0 0.00 0.00 0.00 35 1018.2
20260502054613 55 15 2.0 3.0 0.00 0.00 0.00 35 1018.2
20260502053622 55 16 4.0 9.0 0.00 0.00 0.00 35 1018.1
20260502052612 55 15 9.0 10.0 0.00 0.00 0.00 36 1018.0
20260502051626 55 5 0.0 3.0 0.00 0.00 0.00 34 1018.0
20260502050614 55 5 0.0 3.0 0.00 0.00 0.00 35 1018.0
20260502045613 55 5 1.0 2.0 0.00 0.00 0.00 35 1018.0
20260502044623 55 5 1.0 2.0 0.00 0.00 0.00 33 1018.0
20260502043615 56 5 1.0 3.0 0.00 0.00 0.00 34 1018.0
20260502042624 56 5 1.0 2.0 0.00 0.00 0.00 33 1018.0
20260502041614 55 5 5.0 6.0 0.00 0.00 0.00 34 1018.0
20260502040645 55 5 7.0 9.0 0.00 0.00 0.00 36 1017.9
20260502035629 54 5 8.0 9.0 0.00 0.00 0.00 37 1017.8
20260502034616 54 5 10.0 10.0 0.00 0.00 0.00 36 1017.7
20260502033625 55 5 9.0 9.0 0.00 0.00 0.00 36 1017.6
20260502032617 55 360 9.0 11.0 0.00 0.00 0.00 35 1017.5
20260502031630 55 360 10.0 11.0 0.00 0.00 0.00 34 1017.4
20260502030638 55 360 10.0 11.0 0.00 0.00 0.00 33 1017.3
20260502025618 55 355 10.0 11.0 0.00 0.00 0.00 33 1017.0
20260502024628 56 355 10.0 12.0 0.00 0.00 0.00 32 1017.0
20260502023622 57 350 9.0 10.0 0.00 0.00 0.00 32 1016.9
20260502022613 57 355 10.0 11.0 0.00 0.00 0.00 34 1016.9
20260502021623 58 355 9.0 10.0 0.00 0.00 0.00 34 1016.9
20260502020652 61 13 7.0 9.0 0.00 0.00 0.00 32 1016.9
20260502015616 64 17 5.0 6.0 0.00 0.00 0.00 25 1016.8
20260502014623 64 17 5.0 6.0 0.00 0.00 0.00 25 1016.9
20260502013613 65 18 6.0 8.0 0.00 0.00 0.00 22 1016.9
20260502012623 65 19 6.0 9.0 0.00 0.00 0.00 23 1016.9
20260502011616 66 19 5.0 6.0 0.00 0.00 0.00 21 1016.8
20260502010627 67 340 3.0 9.0 0.00 0.00 0.00 19 1016.9
20260502005627 66 71 4.0 12.0 0.00 0.00 0.00 17 1017.0
20260502004619 66 36 3.0 9.0 0.00 0.00 0.00 19 1017.0
20260502003613 66 28 5.0 11.0 0.00 0.00 0.00 18 1017.0
20260502002621 66 59 8.0 13.0 0.00 0.00 0.00 19 1017.0
20260502001630 66 39 10.0 14.0 0.00 0.00 0.00 21 1017.0
20260502000615 66 21 9.0 14.0 0.00 0.00 0.00 19 1017.0
20260501235622 66 46 11.0 14.0 0.00 0.00 0.00 19 1017.1
20260501234631 67 15 9.0 14.0 0.00 0.00 0.00 20 1017.1
20260501233618 67 49 8.0 13.0 0.00 0.00 0.00 20 1017.2
20260501232627 67 22 8.0 14.0 0.00 0.00 0.00 18 1017.3
20260501231620 67 46 7.0 12.0 0.00 0.00 0.00 19 1017.2
20260501230630 66 32 10.0 16.0 0.00 0.00 0.00 20 1017.3
20260501225631 67 36 9.0 13.0 0.00 0.00 0.00 22 1017.4
20260501224621 66 57 7.0 10.0 0.00 0.00 0.00 20 1017.5
20260501223613 67 86 5.0 14.0 0.00 0.00 0.00 19 1017.6
20260501222641 66 30 10.0 18.0 0.00 0.00 0.00 19 1017.8
20260501221629 66 47 6.0 11.0 0.00 0.00 0.00 25 1017.8
20260501220617 66 95 8.0 14.0 0.00 0.00 0.00 21 1018.0
20260501215619 66 57 9.0 15.0 0.00 0.00 0.00 21 1018.2
20260501214627 66 337 5.0 14.0 0.00 0.00 0.00 23 1018.3
20260501213615 65 65 1.0 12.0 0.00 0.00 0.00 20 1018.4
20260501212623 65 56 8.0 12.0 0.00 0.00 0.00 21 1018.5
20260501211616 65 65 8.0 14.0 0.00 0.00 0.00 23 1018.6
20260501210626 65 88 7.0 12.0 0.00 0.00 0.00 23 1018.6
20260501205626 64 69 7.0 14.0 0.00 0.00 0.00 23 1018.6
20260501204632 65 106 9.0 14.0 0.00 0.00 0.00 23 1018.7
20260501203626 64 327 4.0 15.0 0.00 0.00 0.00 24 1018.7
20260501202615 64 44 6.0 12.0 0.00 0.00 0.00 25 1018.8
20260501201624 63 21 7.0 19.0 0.00 0.00 0.00 26 1018.9
20260501200619 63 180 2.0 8.0 0.00 0.00 0.00 24 1018.9
20260501195620 62 101 6.0 12.0 0.00 0.00 0.00 24 1019.0
20260501194627 62 215 2.0 8.0 0.00 0.00 0.00 24 1019.0
20260501193617 62 78 3.0 14.0 0.00 0.00 0.00 24 1019.1
20260501192629 62 55 8.0 15.0 0.00 0.00 0.00 26 1019.1
20260501191616 61 170 1.0 5.0 0.00 0.00 0.00 25 1019.3
20260501190626 61 34 4.0 18.0 0.00 0.00 0.00 27 1019.4
20260501185626 61 14 7.0 11.0 0.00 0.00 0.00 26 1019.4
20260501184616 61 45 6.0 15.0 0.00 0.00 0.00 27 1019.5
20260501183623 61 30 12.0 18.0 0.00 0.00 0.00 26 1019.5
20260501182612 61 58 12.0 19.0 0.00 0.00 0.00 26 1019.6
20260501181619 61 36 12.0 20.0 0.00 0.00 0.00 26 1019.7
20260501180651 60 46 14.0 19.0 0.00 0.00 0.00 27 1019.6
20260501175614 60 71 12.0 18.0 0.00 0.00 0.00 27 1019.7
20260501174622 60 32 10.0 17.0 0.00 0.00 0.00 26 1019.9
20260501173629 59 22 8.0 17.0 0.00 0.00 0.00 29 1019.9
20260501172617 59 59 10.0 16.0 0.00 0.00 0.00 28 1019.9